Simultaneous Nadir Overpasses (SNOs) Predictions

Prediction of SNOs between GOES-15 and METOP-B Satellite Orbit:

Table of predicted SNOs for the next 14.0 days since TLE Epoch: 3/16/2024
Index Date Time (GOES-15) GOES-15 Lat,Lon METOP-B Lat,Lon Distance(km) Time Diff (sec)
1 03/16/2024 05:25:21 -0.03, 61.22 0.32, 59.57 187.81 80
2 03/17/2024 05:07:21 -0.02, 61.22 -0.76, 64.56 380.78 80
3 03/18/2024 17:26:23 0.03, 61.18 -0.24, 59.95 140.88 80
4 03/19/2024 17:03:03 0.03, 61.19 0.84, 64.94 427.15 80
5 03/21/2024 05:21:56 -0.04, 61.22 0.13, 60.35 98.71 80
6 03/22/2024 05:03:57 -0.03, 61.22 -0.95, 65.35 469.91 80
7 03/23/2024 17:22:58 0.04, 61.19 -0.03, 60.73 51.26 80
8 03/26/2024 05:18:31 -0.04, 61.24 -0.03, 61.15 9.75 80
9 03/28/2024 17:16:52 0.05, 61.20 0.09, 61.54 37.18 80
